owner,sensor,date,latitude,longitude,vertical_datum,wind_speed,wind_to_direction,wind_speed_of_gust,qcFlag 
WAVCIS,ioos:station:WAVCIS:CSI16:1,2009-10-01T00:00:00Z,29.4012,-89.0355,10.0,2.459,39.0,,'11111222,11111222,99999999' 
WAVCIS,ioos:station:WAVCIS:CSI16:1,2009-10-01T01:00:00Z,29.4012,-89.0355,10.0,1.474,49.0,,'11111222,11111222,99999999' 
WAVCIS,ioos:station:WAVCIS:CSI16:1,2009-10-01T02:00:00Z,29.4012,-89.0355,10.0,1.723,64.0,,'11111222,11111222,99999999' 
WAVCIS,ioos:station:WAVCIS:CSI16:1,2009-10-01T03:00:00Z,29.4012,-89.0355,10.0,3.028,66.0,,'11111222,11111222,99999999' 
WAVCIS,ioos:station:WAVCIS:CSI16:1,2009-10-01T04:00:00Z,29.4012,-89.0355,10.0,2.294,72.0,,'11111222,11111222,99999999' 
WAVCIS,ioos:station:WAVCIS:CSI16:1,2009-10-01T05:00:00Z,29.4012,-89.0355,10.0,3.074,77.0,,'11111222,11111222,99999999' 
WAVCIS,ioos:station:WAVCIS:CSI16:1,2009-10-01T06:00:00Z,29.4012,-89.0355,10.0,3.027,98.0,,'11111222,11111222,99999999' 
WAVCIS,ioos:station:WAVCIS:CSI16:1,2009-10-01T07:00:00Z,29.4012,-89.0355,10.0,1.84,69.0,,'11111222,11111222,99999999' 
WAVCIS,ioos:station:WAVCIS:CSI16:1,2009-10-01T08:00:00Z,29.4012,-89.0355,10.0,2.934,131.0,,'11111222,11111222,99999999' 
WAVCIS,ioos:station:WAVCIS:CSI16:1,2009-10-01T09:00:00Z,29.4012,-89.0355,10.0,3.611,127.0,,'11111222,11111222,99999999' 
WAVCIS,ioos:station:WAVCIS:CSI16:1,2009-10-01T10:00:00Z,29.4012,-89.0355,10.0,2.252,129.0,,'11111222,11111222,99999999' 
WAVCIS,ioos:station:WAVCIS:CSI16:1,2009-10-01T11:00:00Z,29.4012,-89.0355,10.0,1.638,103.0,,'11111222,11111222,99999999' 
WAVCIS,ioos:station:WAVCIS:CSI16:1,2009-10-01T12:00:00Z,29.4012,-89.0355,10.0,2.776,147.0,,'11111222,11111222,99999999' 
WAVCIS,ioos:station:WAVCIS:CSI16:1,2009-10-01T13:00:00Z,29.4012,-89.0355,10.0,4.319,132.0,,'11111222,11111222,99999999' 
WAVCIS,ioos:station:WAVCIS:CSI16:1,2009-10-01T14:00:00Z,29.4012,-89.0355,10.0,3.202,163.0,,'11111222,11111222,99999999' 
WAVCIS,ioos:station:WAVCIS:CSI16:1,2009-10-01T15:00:00Z,29.4012,-89.0355,10.0,3.472,178.0,,'11111222,11111222,99999999' 
WAVCIS,ioos:station:WAVCIS:CSI16:1,2009-10-01T16:00:00Z,29.4012,-89.0355,10.0,3.289,179.0,,'11111222,11111222,99999999' 
WAVCIS,ioos:station:WAVCIS:CSI16:1,2009-10-01T17:00:00Z,29.4012,-89.0355,10.0,2.668,187.0,,'11111222,11111222,99999999' 
WAVCIS,ioos:station:WAVCIS:CSI16:1,2009-10-01T18:00:00Z,29.4012,-89.0355,10.0,2.199,149.0,,'11111222,11111222,99999999' 
WAVCIS,ioos:station:WAVCIS:CSI16:1,2009-10-01T19:00:00Z,29.4012,-89.0355,10.0,2.705,147.0,,'11111222,11111222,99999999' 
WAVCIS,ioos:station:WAVCIS:CSI16:1,2009-10-01T20:00:00Z,29.4012,-89.0355,10.0,3.067,138.0,,'11111222,11111222,99999999' 
WAVCIS,ioos:station:WAVCIS:CSI16:1,2009-10-01T21:00:00Z,29.4012,-89.0355,10.0,2.587,129.0,,'11111222,11111222,99999999' 
WAVCIS,ioos:station:WAVCIS:CSI16:1,2009-10-01T22:00:00Z,29.4012,-89.0355,10.0,2.63,143.0,,'11111222,11111222,99999999' 
WAVCIS,ioos:station:WAVCIS:CSI16:1,2009-10-01T23:00:00Z,29.4012,-89.0355,10.0,2.428,146.0,,'11111222,11111222,99999999' 
WAVCIS,ioos:station:WAVCIS:CSI16:1,2009-10-02T00:00:00Z,29.4012,-89.0355,10.0,2.462,141.0,,'11111222,11111222,99999999' 
WAVCIS,ioos:station:WAVCIS:CSI16:1,2009-10-02T01:00:00Z,29.4012,-89.0355,10.0,2.923,146.0,,'11111222,11111222,99999999' 
WAVCIS,ioos:station:WAVCIS:CSI16:1,2009-10-02T02:00:00Z,29.4012,-89.0355,10.0,4.552,150.0,,'11111222,11111222,99999999' 
WAVCIS,ioos:station:WAVCIS:CSI16:1,2009-10-02T03:00:00Z,29.4012,-89.0355,10.0,5.597,148.0,,'11111222,11111222,99999999' 
WAVCIS,ioos:station:WAVCIS:CSI16:1,2009-10-02T04:00:00Z,29.4012,-89.0355,10.0,7.79,159.0,,'11111222,11111222,99999999' 
WAVCIS,ioos:station:WAVCIS:CSI16:1,2009-10-02T05:00:00Z,29.4012,-89.0355,10.0,8.88,154.0,,'11111222,11111222,99999999' 
WAVCIS,ioos:station:WAVCIS:CSI16:1,2009-10-02T06:00:00Z,29.4012,-89.0355,10.0,7.36,170.0,,'11111222,11111222,99999999' 
WAVCIS,ioos:station:WAVCIS:CSI16:1,2009-10-02T07:00:00Z,29.4012,-89.0355,10.0,6.081,176.0,,'11111222,11111222,99999999' 
WAVCIS,ioos:station:WAVCIS:CSI16:1,2009-10-02T08:00:00Z,29.4012,-89.0355,10.0,7.2,185.0,,'11111222,11111222,99999999' 
WAVCIS,ioos:station:WAVCIS:CSI16:1,2009-10-02T09:00:00Z,29.4012,-89.0355,10.0,6.703,194.0,,'11111222,11111222,99999999' 
WAVCIS,ioos:station:WAVCIS:CSI16:1,2009-10-02T10:00:00Z,29.4012,-89.0355,10.0,6.103,202.0,,'11111222,11111222,99999999' 
WAVCIS,ioos:station:WAVCIS:CSI16:1,2009-10-02T11:00:00Z,29.4012,-89.0355,10.0,5.806,203.0,,'11111222,11111222,99999999' 
WAVCIS,ioos:station:WAVCIS:CSI16:1,2009-10-02T12:00:00Z,29.4012,-89.0355,10.0,3.393,263.0,,'11111222,11111222,99999999' 
WAVCIS,ioos:station:WAVCIS:CSI16:1,2009-10-02T13:00:00Z,29.4012,-89.0355,10.0,11.43,334.0,,'11111222,11111222,99999999' 
WAVCIS,ioos:station:WAVCIS:CSI16:1,2009-10-02T14:00:00Z,29.4012,-89.0355,10.0,5.407,328.0,,'11111222,11111222,99999999' 
WAVCIS,ioos:station:WAVCIS:CSI16:1,2009-10-02T15:00:00Z,29.4012,-89.0355,10.0,2.809,294.0,,'11111222,11111222,99999999' 
WAVCIS,ioos:station:WAVCIS:CSI16:1,2009-10-02T16:00:00Z,29.4012,-89.0355,10.0,4.678,240.0,,'11111222,11111222,99999999' 
WAVCIS,ioos:station:WAVCIS:CSI16:1,2009-10-02T17:00:00Z,29.4012,-89.0355,10.0,3.943,212.0,,'11111222,11111222,99999999' 
WAVCIS,ioos:station:WAVCIS:CSI16:1,2009-10-02T18:00:00Z,29.4012,-89.0355,10.0,1.008,271.0,,'11111222,11111222,99999999' 
WAVCIS,ioos:station:WAVCIS:CSI16:1,2009-10-02T19:00:00Z,29.4012,-89.0355,10.0,3.031,330.0,,'11111222,11111222,99999999' 
WAVCIS,ioos:station:WAVCIS:CSI16:1,2009-10-02T20:00:00Z,29.4012,-89.0355,10.0,2.174,357.0,,'11111222,11111222,99999999' 
WAVCIS,ioos:station:WAVCIS:CSI16:1,2009-10-02T21:00:00Z,29.4012,-89.0355,10.0,2.77,7.0,,'11111222,11111222,99999999' 
WAVCIS,ioos:station:WAVCIS:CSI16:1,2009-10-02T22:00:00Z,29.4012,-89.0355,10.0,1.074,89.0,,'11111222,11111222,99999999' 
WAVCIS,ioos:station:WAVCIS:CSI16:1,2009-10-02T23:00:00Z,29.4012,-89.0355,10.0,2.135,68.0,,'11111222,11111222,99999999' 
WAVCIS,ioos:station:WAVCIS:CSI16:1,2009-10-03T00:00:00Z,29.4012,-89.0355,10.0,3.398,84.0,,'11111222,11111222,99999999' 
WAVCIS,ioos:station:WAVCIS:CSI16:1,2009-10-03T01:00:00Z,29.4012,-89.0355,10.0,3.799,69.0,,'11111222,11111222,99999999' 
WAVCIS,ioos:station:WAVCIS:CSI16:1,2009-10-03T02:00:00Z,29.4012,-89.0355,10.0,2.989,72.0,,'11111222,11111222,99999999' 
WAVCIS,ioos:station:WAVCIS:CSI16:1,2009-10-03T03:00:00Z,29.4012,-89.0355,10.0,2.983,81.0,,'11111222,11111222,99999999' 
WAVCIS,ioos:station:WAVCIS:CSI16:1,2009-10-03T04:00:00Z,29.4012,-89.0355,10.0,2.888,99.0,,'11111222,11111222,99999999' 
WAVCIS,ioos:station:WAVCIS:CSI16:1,2009-10-03T05:00:00Z,29.4012,-89.0355,10.0,2.751,126.0,,'11111222,11111222,99999999' 
WAVCIS,ioos:station:WAVCIS:CSI16:1,2009-10-03T06:00:00Z,29.4012,-89.0355,10.0,2.005,119.0,,'11111222,11111222,99999999' 
WAVCIS,ioos:station:WAVCIS:CSI16:1,2009-10-03T07:00:00Z,29.4012,-89.0355,10.0,1.707,140.0,,'11111222,11111222,99999999' 
WAVCIS,ioos:station:WAVCIS:CSI16:1,2009-10-03T08:00:00Z,29.4012,-89.0355,10.0,1.118,137.0,,'11111222,11111222,99999999' 
WAVCIS,ioos:station:WAVCIS:CSI16:1,2009-10-03T09:00:00Z,29.4012,-89.0355,10.0,1.895,115.0,,'11111222,11111222,99999999' 
WAVCIS,ioos:station:WAVCIS:CSI16:1,2009-10-03T10:00:00Z,29.4012,-89.0355,10.0,2.873,82.0,,'11111222,11111222,99999999' 
WAVCIS,ioos:station:WAVCIS:CSI16:1,2009-10-03T11:00:00Z,29.4012,-89.0355,10.0,1.38,36.0,,'11111222,11111222,99999999' 
WAVCIS,ioos:station:WAVCIS:CSI16:1,2009-10-03T12:00:00Z,29.4012,-89.0355,10.0,2.873,16.0,,'11111222,11111222,99999999' 
WAVCIS,ioos:station:WAVCIS:CSI16:1,2009-10-03T13:00:00Z,29.4012,-89.0355,10.0,2.299,34.0,,'11111222,11111222,99999999' 
WAVCIS,ioos:station:WAVCIS:CSI16:1,2009-10-03T14:00:00Z,29.4012,-89.0355,10.0,4.238,65.0,,'11111222,11111222,99999999' 
WAVCIS,ioos:station:WAVCIS:CSI16:1,2009-10-03T15:00:00Z,29.4012,-89.0355,10.0,5.603,91.0,,'11111222,11111222,99999999' 
WAVCIS,ioos:station:WAVCIS:CSI16:1,2009-10-03T16:00:00Z,29.4012,-89.0355,10.0,6.407,105.0,,'11111222,11111222,99999999' 
WAVCIS,ioos:station:WAVCIS:CSI16:1,2009-10-03T17:00:00Z,29.4012,-89.0355,10.0,4.617,94.0,,'11111222,11111222,99999999' 
WAVCIS,ioos:station:WAVCIS:CSI16:1,2009-10-03T18:00:00Z,29.4012,-89.0355,10.0,5.474,99.0,,'11111222,11111222,99999999' 
WAVCIS,ioos:station:WAVCIS:CSI16:1,2009-10-03T19:00:00Z,29.4012,-89.0355,10.0,5.679,103.0,,'11111222,11111222,99999999' 
WAVCIS,ioos:station:WAVCIS:CSI16:1,2009-10-03T20:00:00Z,29.4012,-89.0355,10.0,5.754,106.0,,'11111222,11111222,99999999' 
WAVCIS,ioos:station:WAVCIS:CSI16:1,2009-10-03T21:00:00Z,29.4012,-89.0355,10.0,4.734,111.0,,'11111222,11111222,99999999' 
WAVCIS,ioos:station:WAVCIS:CSI16:1,2009-10-03T22:00:00Z,29.4012,-89.0355,10.0,3.977,121.0,,'11111222,11111222,99999999' 
WAVCIS,ioos:station:WAVCIS:CSI16:1,2009-10-03T23:00:00Z,29.4012,-89.0355,10.0,1.916,139.0,,'11111222,11111222,99999999' 
WAVCIS,ioos:station:WAVCIS:CSI16:1,2009-10-04T00:00:00Z,29.4012,-89.0355,10.0,3.718,138.0,,'11111222,11111222,99999999' 
WAVCIS,ioos:station:WAVCIS:CSI16:1,2009-10-04T01:00:00Z,29.4012,-89.0355,10.0,3.337,107.0,,'11111222,11111222,99999999' 
WAVCIS,ioos:station:WAVCIS:CSI16:1,2009-10-04T02:00:00Z,29.4012,-89.0355,10.0,4.08,100.0,,'11111222,11111222,99999999' 
WAVCIS,ioos:station:WAVCIS:CSI16:1,2009-10-04T03:00:00Z,29.4012,-89.0355,10.0,5.064,128.0,,'11111222,11111222,99999999' 
WAVCIS,ioos:station:WAVCIS:CSI16:1,2009-10-04T04:00:00Z,29.4012,-89.0355,10.0,5.463,123.0,,'11111222,11111222,99999999' 
WAVCIS,ioos:station:WAVCIS:CSI16:1,2009-10-04T05:00:00Z,29.4012,-89.0355,10.0,4.327,122.0,,'11111222,11111222,99999999' 
WAVCIS,ioos:station:WAVCIS:CSI16:1,2009-10-04T06:00:00Z,29.4012,-89.0355,10.0,5.172,125.0,,'11111222,11111222,99999999' 
WAVCIS,ioos:station:WAVCIS:CSI16:1,2009-10-04T07:00:00Z,29.4012,-89.0355,10.0,4.354,131.0,,'11111222,11111222,99999999' 
WAVCIS,ioos:station:WAVCIS:CSI16:1,2009-10-04T08:00:00Z,29.4012,-89.0355,10.0,7.94,153.0,,'11111222,11111222,99999999' 
WAVCIS,ioos:station:WAVCIS:CSI16:1,2009-10-04T09:00:00Z,29.4012,-89.0355,10.0,4.519,139.0,,'11111222,11111222,99999999' 
WAVCIS,ioos:station:WAVCIS:CSI16:1,2009-10-04T10:00:00Z,29.4012,-89.0355,10.0,7.5,139.0,,'11111222,11111222,99999999' 
WAVCIS,ioos:station:WAVCIS:CSI16:1,2009-10-04T11:00:00Z,29.4012,-89.0355,10.0,12.15,160.0,,'11111222,11111222,99999999' 
WAVCIS,ioos:station:WAVCIS:CSI16:1,2009-10-04T12:00:00Z,29.4012,-89.0355,10.0,10.65,144.0,,'11111222,11111222,99999999' 
WAVCIS,ioos:station:WAVCIS:CSI16:1,2009-10-04T13:00:00Z,29.4012,-89.0355,10.0,10.07,150.0,,'11111222,11111222,99999999' 
WAVCIS,ioos:station:WAVCIS:CSI16:1,2009-10-04T14:00:00Z,29.4012,-89.0355,10.0,10.22,138.0,,'11111222,11111222,99999999' 
WAVCIS,ioos:station:WAVCIS:CSI16:1,2009-10-04T15:00:00Z,29.4012,-89.0355,10.0,9.97,152.0,,'11111222,11111222,99999999' 
WAVCIS,ioos:station:WAVCIS:CSI16:1,2009-10-04T16:00:00Z,29.4012,-89.0355,10.0,8.86,155.0,,'11111222,11111222,99999999' 
WAVCIS,ioos:station:WAVCIS:CSI16:1,2009-10-04T17:00:00Z,29.4012,-89.0355,10.0,9.89,142.0,,'11111222,11111222,99999999' 
WAVCIS,ioos:station:WAVCIS:CSI16:1,2009-10-04T18:00:00Z,29.4012,-89.0355,10.0,8.91,147.0,,'11111222,11111222,99999999' 
WAVCIS,ioos:station:WAVCIS:CSI16:1,2009-10-04T19:00:00Z,29.4012,-89.0355,10.0,10.88,175.0,,'11111222,11111222,99999999' 
WAVCIS,ioos:station:WAVCIS:CSI16:1,2009-10-04T20:00:00Z,29.4012,-89.0355,10.0,10.75,182.0,,'11111222,11111222,99999999' 
WAVCIS,ioos:station:WAVCIS:CSI16:1,2009-10-04T21:00:00Z,29.4012,-89.0355,10.0,8.68,182.0,,'11111222,11111222,99999999' 
WAVCIS,ioos:station:WAVCIS:CSI16:1,2009-10-04T22:00:00Z,29.4012,-89.0355,10.0,8.66,182.0,,'11111222,11111222,99999999' 
WAVCIS,ioos:station:WAVCIS:CSI16:1,2009-10-04T23:00:00Z,29.4012,-89.0355,10.0,8.92,186.0,,'11111222,11111222,99999999' 
WAVCIS,ioos:station:WAVCIS:CSI16:1,2009-10-05T00:00:00Z,29.4012,-89.0355,10.0,8.08,198.0,,'11111222,11111222,99999999' 
WAVCIS,ioos:station:WAVCIS:CSI16:1,2009-10-05T01:00:00Z,29.4012,-89.0355,10.0,8.76,188.0,,'11111222,11111222,99999999' 
WAVCIS,ioos:station:WAVCIS:CSI16:1,2009-10-05T02:00:00Z,29.4012,-89.0355,10.0,8.45,179.0,,'11111222,11111222,99999999' 
WAVCIS,ioos:station:WAVCIS:CSI16:1,2009-10-05T03:00:00Z,29.4012,-89.0355,10.0,7.55,188.0,,'11111222,11111222,99999999' 
WAVCIS,ioos:station:WAVCIS:CSI16:1,2009-10-05T04:00:00Z,29.4012,-89.0355,10.0,6.197,200.0,,'11111222,11111222,99999999' 
WAVCIS,ioos:station:WAVCIS:CSI16:1,2009-10-05T05:00:00Z,29.4012,-89.0355,10.0,6.552,202.0,,'11111222,11111222,99999999' 
WAVCIS,ioos:station:WAVCIS:CSI16:1,2009-10-05T06:00:00Z,29.4012,-89.0355,10.0,6.135,201.0,,'11111222,11111222,99999999' 
WAVCIS,ioos:station:WAVCIS:CSI16:1,2009-10-05T07:00:00Z,29.4012,-89.0355,10.0,7.18,204.0,,'11111222,11111222,99999999' 
WAVCIS,ioos:station:WAVCIS:CSI16:1,2009-10-05T08:00:00Z,29.4012,-89.0355,10.0,8.41,218.0,,'11111222,11111222,99999999' 
WAVCIS,ioos:station:WAVCIS:CSI16:1,2009-10-05T09:00:00Z,29.4012,-89.0355,10.0,6.889,206.0,,'11111222,11111222,99999999' 
WAVCIS,ioos:station:WAVCIS:CSI16:1,2009-10-05T10:00:00Z,29.4012,-89.0355,10.0,9.33,196.0,,'11111222,11111222,99999999' 
WAVCIS,ioos:station:WAVCIS:CSI16:1,2009-10-05T11:00:00Z,29.4012,-89.0355,10.0,5.818,203.0,,'11111222,11111222,99999999' 
WAVCIS,ioos:station:WAVCIS:CSI16:1,2009-10-05T12:00:00Z,29.4012,-89.0355,10.0,6.029,195.0,,'11111222,11111222,99999999' 
WAVCIS,ioos:station:WAVCIS:CSI16:1,2009-10-05T13:00:00Z,29.4012,-89.0355,10.0,5.272,204.0,,'11111222,11111222,99999999' 
WAVCIS,ioos:station:WAVCIS:CSI16:1,2009-10-05T14:00:00Z,29.4012,-89.0355,10.0,6.921,242.0,,'11111222,11111222,99999999' 
WAVCIS,ioos:station:WAVCIS:CSI16:1,2009-10-05T15:00:00Z,29.4012,-89.0355,10.0,7.35,250.0,,'11111222,11111222,99999999' 
WAVCIS,ioos:station:WAVCIS:CSI16:1,2009-10-05T16:00:00Z,29.4012,-89.0355,10.0,7.27,253.0,,'11111222,11111222,99999999' 
WAVCIS,ioos:station:WAVCIS:CSI16:1,2009-10-05T17:00:00Z,29.4012,-89.0355,10.0,6.851,253.0,,'11111222,11111222,99999999' 
WAVCIS,ioos:station:WAVCIS:CSI16:1,2009-10-05T18:00:00Z,29.4012,-89.0355,10.0,6.955,255.0,,'11111222,11111222,99999999' 
WAVCIS,ioos:station:WAVCIS:CSI16:1,2009-10-05T19:00:00Z,29.4012,-89.0355,10.0,7.63,258.0,,'11111222,11111222,99999999' 
WAVCIS,ioos:station:WAVCIS:CSI16:1,2009-10-05T20:00:00Z,29.4012,-89.0355,10.0,5.83,316.0,,'11111222,11111222,99999999' 
WAVCIS,ioos:station:WAVCIS:CSI16:1,2009-10-05T21:00:00Z,29.4012,-89.0355,10.0,2.103,309.0,,'11111222,11111222,99999999' 
WAVCIS,ioos:station:WAVCIS:CSI16:1,2009-10-05T22:00:00Z,29.4012,-89.0355,10.0,2.669,268.0,,'11111222,11111222,99999999' 
WAVCIS,ioos:station:WAVCIS:CSI16:1,2009-10-05T23:00:00Z,29.4012,-89.0355,10.0,3.17,263.0,,'11111222,11111222,99999999' 
WAVCIS,ioos:station:WAVCIS:CSI16:1,2009-10-06T00:00:00Z,29.4012,-89.0355,10.0,2.495,215.0,,'11111222,11111222,99999999' 
WAVCIS,ioos:station:WAVCIS:CSI16:1,2009-10-06T01:00:00Z,29.4012,-89.0355,10.0,1.947,220.0,,'11111222,11111222,99999999' 
WAVCIS,ioos:station:WAVCIS:CSI16:1,2009-10-06T02:00:00Z,29.4012,-89.0355,10.0,2.668,235.0,,'11111222,11111222,99999999' 
WAVCIS,ioos:station:WAVCIS:CSI16:1,2009-10-06T03:00:00Z,29.4012,-89.0355,10.0,3.798,230.0,,'11111222,11111222,99999999' 
WAVCIS,ioos:station:WAVCIS:CSI16:1,2009-10-06T04:00:00Z,29.4012,-89.0355,10.0,4.012,233.0,,'11111222,11111222,99999999' 
WAVCIS,ioos:station:WAVCIS:CSI16:1,2009-10-06T05:00:00Z,29.4012,-89.0355,10.0,4.345,220.0,,'11111222,11111222,99999999' 
WAVCIS,ioos:station:WAVCIS:CSI16:1,2009-10-06T06:00:00Z,29.4012,-89.0355,10.0,4.37,227.0,,'11111222,11111222,99999999' 
WAVCIS,ioos:station:WAVCIS:CSI16:1,2009-10-06T07:00:00Z,29.4012,-89.0355,10.0,4.623,202.0,,'11111222,11111222,99999999' 
WAVCIS,ioos:station:WAVCIS:CSI16:1,2009-10-06T08:00:00Z,29.4012,-89.0355,10.0,4.999,199.0,,'11111222,11111222,99999999' 
WAVCIS,ioos:station:WAVCIS:CSI16:1,2009-10-06T09:00:00Z,29.4012,-89.0355,10.0,5.606,202.0,,'11111222,11111222,99999999' 
WAVCIS,ioos:station:WAVCIS:CSI16:1,2009-10-06T10:00:00Z,29.4012,-89.0355,10.0,4.263,211.0,,'11111222,11111222,99999999' 
WAVCIS,ioos:station:WAVCIS:CSI16:1,2009-10-06T11:00:00Z,29.4012,-89.0355,10.0,2.924,218.0,,'11111222,11111222,99999999' 
WAVCIS,ioos:station:WAVCIS:CSI16:1,2009-10-06T12:00:00Z,29.4012,-89.0355,10.0,2.626,210.0,,'11111222,11111222,99999999' 
WAVCIS,ioos:station:WAVCIS:CSI16:1,2009-10-08T18:00:00Z,29.4012,-89.0355,10.0,6.535,159.0,,'11111222,11111222,99999999' 
WAVCIS,ioos:station:WAVCIS:CSI16:1,2009-10-08T19:00:00Z,29.4012,-89.0355,10.0,7.03,165.0,,'11111222,11111222,99999999' 
WAVCIS,ioos:station:WAVCIS:CSI16:1,2009-10-08T20:00:00Z,29.4012,-89.0355,10.0,7.17,159.0,,'11111222,11111222,99999999' 
WAVCIS,ioos:station:WAVCIS:CSI16:1,2009-10-08T21:00:00Z,29.4012,-89.0355,10.0,7.86,158.0,,'11111222,11111222,99999999' 
WAVCIS,ioos:station:WAVCIS:CSI16:1,2009-10-08T22:00:00Z,29.4012,-89.0355,10.0,7.99,162.0,,'11111222,11111222,99999999' 
WAVCIS,ioos:station:WAVCIS:CSI16:1,2009-10-08T23:00:00Z,29.4012,-89.0355,10.0,7.53,164.0,,'11111222,11111222,99999999' 
WAVCIS,ioos:station:WAVCIS:CSI16:1,2009-10-09T00:00:00Z,29.4012,-89.0355,10.0,7.77,160.0,,'11111222,11111222,99999999' 
WAVCIS,ioos:station:WAVCIS:CSI16:1,2009-10-09T01:00:00Z,29.4012,-89.0355,10.0,8.98,163.0,,'11111222,11111222,99999999' 
WAVCIS,ioos:station:WAVCIS:CSI16:1,2009-10-09T02:00:00Z,29.4012,-89.0355,10.0,8.68,161.0,,'11111222,11111222,99999999' 
WAVCIS,ioos:station:WAVCIS:CSI16:1,2009-10-09T03:00:00Z,29.4012,-89.0355,10.0,9.07,158.0,,'11111222,11111222,99999999' 
WAVCIS,ioos:station:WAVCIS:CSI16:1,2009-10-09T04:00:00Z,29.4012,-89.0355,10.0,8.63,156.0,,'11111222,11111222,99999999' 
WAVCIS,ioos:station:WAVCIS:CSI16:1,2009-10-09T05:00:00Z,29.4012,-89.0355,10.0,8.82,164.0,,'11111222,11111222,99999999' 
WAVCIS,ioos:station:WAVCIS:CSI16:1,2009-10-09T06:00:00Z,29.4012,-89.0355,10.0,8.32,162.0,,'11111222,11111222,99999999' 
WAVCIS,ioos:station:WAVCIS:CSI16:1,2009-10-09T07:00:00Z,29.4012,-89.0355,10.0,9.67,161.0,,'11111222,11111222,99999999' 
WAVCIS,ioos:station:WAVCIS:CSI16:1,2009-10-09T08:00:00Z,29.4012,-89.0355,10.0,9.55,168.0,,'11111222,11111222,99999999' 
WAVCIS,ioos:station:WAVCIS:CSI16:1,2009-10-09T09:00:00Z,29.4012,-89.0355,10.0,8.89,174.0,,'11111222,11111222,99999999' 
WAVCIS,ioos:station:WAVCIS:CSI16:1,2009-10-09T10:00:00Z,29.4012,-89.0355,10.0,9.93,178.0,,'11111222,11111222,99999999' 
WAVCIS,ioos:station:WAVCIS:CSI16:1,2009-10-09T11:00:00Z,29.4012,-89.0355,10.0,7.85,182.0,,'11111222,11111222,99999999' 
WAVCIS,ioos:station:WAVCIS:CSI16:1,2009-10-09T12:00:00Z,29.4012,-89.0355,10.0,8.97,179.0,,'11111222,11111222,99999999' 
WAVCIS,ioos:station:WAVCIS:CSI16:1,2009-10-09T13:00:00Z,29.4012,-89.0355,10.0,8.42,191.0,,'11111222,11111222,99999999' 
WAVCIS,ioos:station:WAVCIS:CSI16:1,2009-10-09T14:00:00Z,29.4012,-89.0355,10.0,7.4,194.0,,'11111222,11111222,99999999' 
WAVCIS,ioos:station:WAVCIS:CSI16:1,2009-10-09T15:00:00Z,29.4012,-89.0355,10.0,7.85,191.0,,'11111222,11111222,99999999' 
WAVCIS,ioos:station:WAVCIS:CSI16:1,2009-10-09T16:00:00Z,29.4012,-89.0355,10.0,9.2,192.0,,'11111222,11111222,99999999' 
WAVCIS,ioos:station:WAVCIS:CSI16:1,2009-10-09T17:00:00Z,29.4012,-89.0355,10.0,9.55,190.0,,'11111222,11111222,99999999' 
WAVCIS,ioos:station:WAVCIS:CSI16:1,2009-10-09T18:00:00Z,29.4012,-89.0355,10.0,9.1,191.0,,'11111222,11111222,99999999' 
WAVCIS,ioos:station:WAVCIS:CSI16:1,2009-10-09T19:00:00Z,29.4012,-89.0355,10.0,8.59,196.0,,'11111222,11111222,99999999' 
WAVCIS,ioos:station:WAVCIS:CSI16:1,2009-10-09T20:00:00Z,29.4012,-89.0355,10.0,8.24,208.0,,'11111222,11111222,99999999' 
WAVCIS,ioos:station:WAVCIS:CSI16:1,2009-10-09T21:00:00Z,29.4012,-89.0355,10.0,7.44,211.0,,'11111222,11111222,99999999' 
WAVCIS,ioos:station:WAVCIS:CSI16:1,2009-10-09T22:00:00Z,29.4012,-89.0355,10.0,7.54,210.0,,'11111222,11111222,99999999' 
WAVCIS,ioos:station:WAVCIS:CSI16:1,2009-10-09T23:00:00Z,29.4012,-89.0355,10.0,7.56,201.0,,'11111222,11111222,99999999' 
WAVCIS,ioos:station:WAVCIS:CSI16:1,2009-10-10T00:00:00Z,29.4012,-89.0355,10.0,7.68,196.0,,'11111222,11111222,99999999' 
WAVCIS,ioos:station:WAVCIS:CSI16:1,2009-10-10T01:00:00Z,29.4012,-89.0355,10.0,6.43,211.0,,'11111222,11111222,99999999' 
WAVCIS,ioos:station:WAVCIS:CSI16:1,2009-10-10T02:00:00Z,29.4012,-89.0355,10.0,6.3,290.0,,'11111222,11111222,99999999' 
WAVCIS,ioos:station:WAVCIS:CSI16:1,2009-10-10T03:00:00Z,29.4012,-89.0355,10.0,10.71,345.0,,'11111222,11111222,99999999' 
WAVCIS,ioos:station:WAVCIS:CSI16:1,2009-10-10T04:00:00Z,29.4012,-89.0355,10.0,10.49,7.0,,'11111222,11111222,99999999' 
WAVCIS,ioos:station:WAVCIS:CSI16:1,2009-10-10T05:00:00Z,29.4012,-89.0355,10.0,11.25,13.0,,'11111222,11111222,99999999' 
WAVCIS,ioos:station:WAVCIS:CSI16:1,2009-10-10T06:00:00Z,29.4012,-89.0355,10.0,9.98,6.0,,'11111222,11111222,99999999' 
WAVCIS,ioos:station:WAVCIS:CSI16:1,2009-10-10T07:00:00Z,29.4012,-89.0355,10.0,10.4,12.0,,'11111222,11111222,99999999' 
WAVCIS,ioos:station:WAVCIS:CSI16:1,2009-10-10T08:00:00Z,29.4012,-89.0355,10.0,9.42,21.0,,'11111222,11111222,99999999' 
WAVCIS,ioos:station:WAVCIS:CSI16:1,2009-10-10T09:00:00Z,29.4012,-89.0355,10.0,6.371,24.0,,'11111222,11111222,99999999' 
WAVCIS,ioos:station:WAVCIS:CSI16:1,2009-10-10T10:00:00Z,29.4012,-89.0355,10.0,4.042,26.0,,'11111222,11111222,99999999' 
WAVCIS,ioos:station:WAVCIS:CSI16:1,2009-10-10T11:00:00Z,29.4012,-89.0355,10.0,2.786,54.0,,'11111222,11111222,99999999' 
WAVCIS,ioos:station:WAVCIS:CSI16:1,2009-10-10T12:00:00Z,29.4012,-89.0355,10.0,2.799,33.0,,'11111222,11111222,99999999' 
WAVCIS,ioos:station:WAVCIS:CSI16:1,2009-10-10T13:00:00Z,29.4012,-89.0355,10.0,6.972,24.0,,'11111222,11111222,99999999' 
WAVCIS,ioos:station:WAVCIS:CSI16:1,2009-10-10T14:00:00Z,29.4012,-89.0355,10.0,5.1,20.0,,'11111222,11111222,99999999' 
WAVCIS,ioos:station:WAVCIS:CSI16:1,2009-10-10T15:00:00Z,29.4012,-89.0355,10.0,4.835,21.0,,'11111222,11111222,99999999' 
WAVCIS,ioos:station:WAVCIS:CSI16:1,2009-10-10T16:00:00Z,29.4012,-89.0355,10.0,2.25,58.0,,'11111222,11111222,99999999' 
WAVCIS,ioos:station:WAVCIS:CSI16:1,2009-10-10T17:00:00Z,29.4012,-89.0355,10.0,4.61,64.0,,'11111222,11111222,99999999' 
WAVCIS,ioos:station:WAVCIS:CSI16:1,2009-10-10T18:00:00Z,29.4012,-89.0355,10.0,4.65,64.0,,'11111222,11111222,99999999' 
WAVCIS,ioos:station:WAVCIS:CSI16:1,2009-10-10T19:00:00Z,29.4012,-89.0355,10.0,2.492,59.0,,'11111222,11111222,99999999' 
WAVCIS,ioos:station:WAVCIS:CSI16:1,2009-10-10T20:00:00Z,29.4012,-89.0355,10.0,2.299,37.0,,'11111222,11111222,99999999' 
WAVCIS,ioos:station:WAVCIS:CSI16:1,2009-10-10T21:00:00Z,29.4012,-89.0355,10.0,4.79,19.0,,'11111222,11111222,99999999' 
WAVCIS,ioos:station:WAVCIS:CSI16:1,2009-10-10T22:00:00Z,29.4012,-89.0355,10.0,3.886,21.0,,'11111222,11111222,99999999' 
WAVCIS,ioos:station:WAVCIS:CSI16:1,2009-10-10T23:00:00Z,29.4012,-89.0355,10.0,6.904,18.0,,'11111222,11111222,99999999' 
WAVCIS,ioos:station:WAVCIS:CSI16:1,2009-10-11T00:00:00Z,29.4012,-89.0355,10.0,7.98,20.0,,'11111222,11111222,99999999' 
WAVCIS,ioos:station:WAVCIS:CSI16:1,2009-10-11T01:00:00Z,29.4012,-89.0355,10.0,7.94,24.0,,'11111222,11111222,99999999' 
WAVCIS,ioos:station:WAVCIS:CSI16:1,2009-10-11T02:00:00Z,29.4012,-89.0355,10.0,6.948,24.0,,'11111222,11111222,99999999' 
WAVCIS,ioos:station:WAVCIS:CSI16:1,2009-10-11T03:00:00Z,29.4012,-89.0355,10.0,5.02,24.0,,'11111222,11111222,99999999' 
WAVCIS,ioos:station:WAVCIS:CSI16:1,2009-10-11T04:00:00Z,29.4012,-89.0355,10.0,3.974,24.0,,'11111222,11111222,99999999' 
WAVCIS,ioos:station:WAVCIS:CSI16:1,2009-10-11T05:00:00Z,29.4012,-89.0355,10.0,4.232,29.0,,'11111222,11111222,99999999' 
WAVCIS,ioos:station:WAVCIS:CSI16:1,2009-10-11T06:00:00Z,29.4012,-89.0355,10.0,4.611,33.0,,'11111222,11111222,99999999' 
WAVCIS,ioos:station:WAVCIS:CSI16:1,2009-10-11T07:00:00Z,29.4012,-89.0355,10.0,3.146,47.0,,'11111222,11111222,99999999' 
WAVCIS,ioos:station:WAVCIS:CSI16:1,2009-10-11T08:00:00Z,29.4012,-89.0355,10.0,4.654,54.0,,'11111222,11111222,99999999' 
WAVCIS,ioos:station:WAVCIS:CSI16:1,2009-10-11T09:00:00Z,29.4012,-89.0355,10.0,4.097,54.0,,'11111222,11111222,99999999' 
WAVCIS,ioos:station:WAVCIS:CSI16:1,2009-10-11T10:00:00Z,29.4012,-89.0355,10.0,5.295,61.0,,'11111222,11111222,99999999' 